Regional Weather Roundup
Issued by NWS

Home | Current Version | Previous Version | Text Only | Print | Product List | Glossary Off
Versions: 1 2 3 4 5 6 7 8 9 10 11 12 13 14 15 16 17 18 19 20 21 22 23 24 25 26 27 28 29 30 31 32 33 34 35 36 37 38 39 40 41 42 43 44 45 46 47 48 49 50

000
ASUS43 KLOT 211158
RWRIL

ILLINOIS REGIONAL WEATHER ROUNDUP
NATIONAL WEATHER SERVICE CHICAGO/ROMEOVILLE IL
700 AM CDT THU AUG 21 2014

NOTE: "FAIR" INDICATES FEW OR NO CLOUDS BELOW 12,000 FEET WITH NO
SIGNIFICANT WEATHER AND/OR OBSTRUCTIONS TO VISIBILITY.

* THESE STATIONS ARE NOT UNDER NWS QUALITY CONTROL. THEY ALSO MAY NOT
  REPORT WEATHER SUCH AS PRECIPITATION OR FOG.

ILZ001-002-007-009-015-016-024-211300-
NORTHWEST ILLINOIS

CITY           SKY/WX    TMP DP  RH WIND       PRES   REMARKS
MOLINE         MOCLDY    73  69  87 CALM      29.90R
6HR MIN TEMP:  69; 6HR MAX TEMP:  73;

$$

ILZ003-004-008-010-011-017-018-211300-
NORTH CENTRAL ILLINOIS

CITY           SKY/WX    TMP DP  RH WIND       PRES   REMARKS
ROCKFORD       TSTM      70  67  90 SW10      30.01R VSB 1
$$

ILZ005-006-012>014-019>023-211300-
NORTHEAST ILLINOIS

CITY           SKY/WX    TMP DP  RH WIND       PRES   REMARKS
CHICAGO-OHARE  TSTM      72  67  84 CALM      29.94R
6HR MIN TEMP:  70; 6HR MAX TEMP:  74; 6HR PCP:  0.06;

CHICAGO-MIDWAY TSTM      72  70  93 SW5       29.93S
6HR MIN TEMP:  71; 6HR MAX TEMP:  76; 6HR PCP:  0.24;

AURORA         TSTM      71  68  90 CALM      29.97R FOG
6HR MIN TEMP:  70; 6HR MAX TEMP:  72; 6HR PCP:  0.21;

WAUKEGAN       LGT RAIN  69  67  93 CALM      29.93S
6HR MIN TEMP:  65; 6HR MAX TEMP:  69; 6HR PCP: TRACE;

DUPAGE AIRPORT TSTM      70  68  93 NW14      29.98R FOG
6HR MIN TEMP:  70; 6HR MAX TEMP:  72; 6HR PCP:  0.25;

WHEELING       LGT RAIN  73  70  90 CALM      29.93F FOG
6HR MIN TEMP:  71; 6HR MAX TEMP:  77; 6HR PCP:  0.10;

NORTHERLY ISL    N/A     71  68  90 S5          N/A
$$

LMZ740>746-211300-
SOUTHERN LAKE MICHIGAN

STATION/POSITION SKY/WX   TEMP    WIND        PRES    VSBY  WAVE
                          AIR SEA DIR/SP/G                  HT/PER
                          (F)     (DEG/KT/KT) (MB)    (MI)  (FT/S)
SOUTHERN BUOY              68 67  130/  2/  4 1014.0R         0
WAUKEGAN HARBOR            71     220/  4/  6   N/A
HARRISON CRIB              72     200/ 10/ 13   N/A
BURNHAM HARBOR             71     170/  7/  9   N/A
CALUMET HARBOR             71     170/  7/  9 1012.7F
MICHIGAN CITY              72     170/  5/  6   N/A
MICHIGAN CITY 6N           72 71  190/  6/  8   N/A           1/ 3
ST. JOSEPH                 71 71  190/  4/  8   N/A           1/ 3
$$

ILZ025>027-034>036-040-047-049-050-058-095>099-211300-
WEST-CENTRAL ILLINOIS

CITY           SKY/WX    TMP DP  RH WIND       PRES   REMARKS
$$

ILZ028>032-037-038-041>044-048-051>054-059>061-211300-
CENTRAL ILLINOIS

CITY           SKY/WX    TMP DP  RH WIND       PRES   REMARKS
PEORIA         NOT AVBL
SPRINGFIELD    PTCLDY    73  70  90 SW6       29.95R
6HR MIN TEMP:  73; 6HR MAX TEMP:  76;

TAYLORVILLE    NOT AVBL
$$

ILZ033-039-045-046-055>057-062-063-211300-
EAST-CENTRAL ILLINOIS

CITY           SKY/WX    TMP DP  RH WIND       PRES   REMARKS
CHAMPAIGN      PTCLDY    73  71  93 SW7       29.97R
MATTOON        PTCLDY    73  71  93 S9        29.97S
$$

ILZ079-100>102-211300-
SOUTHWEST ILLINOIS

CITY           SKY/WX    TMP DP  RH WIND       PRES   REMARKS
CAHOKIA*         N/A     73  69  87 S3        29.98R
$$

ILZ064>066-069>071-074>076-080>082-084>086-088>090-092>094-211300-
SOUTH-CENTRAL ILLINOIS

CITY           SKY/WX    TMP DP  RH WIND       PRES   REMARKS
CARBONDALE     PTCLDY    77  72  84 S6        30.02R
6HR MIN TEMP:  76; 6HR MAX TEMP:  80;

MARION         PTCLDY    77  73  88 S5        30.03R
$$

ILZ067-068-072-073-078-083-087-091-211300-
SOUTHEAST ILLINOIS

CITY           SKY/WX    TMP DP  RH WIND       PRES   REMARKS
LAWRENCEVILLE  CLEAR     73  70  90 S6        30.00R
$$

ABBREVIATIONS USED IN REMARKS
   TC - TEMPERATURE IN CELSIUS
  WCI - WIND CHILL INDEX
   HX - HEAT INDEX
  VSB - VISIBILITY
$$



USA.gov is the U.S. government's official web portal to all federal, state and local government web resources and services.